Regional Weather Roundup
Issued by NWS

Home | Current Version | Previous Version | Graphics & Text | Print | Product List | Glossary On
Versions: 1 2 3 4 5 6 7 8 9 10 11 12 13 14 15 16 17 18 19 20 21 22 23 24 25 26 27 28 29 30 31 32 33 34 35 36 37 38 39 40 41 42 43 44 45 46 47 48 49 50
000
ASUS43 KLOT 302108
RWRIL

ILLINOIS REGIONAL WEATHER ROUNDUP
NATIONAL WEATHER SERVICE CHICAGO/ROMEOVILLE IL
400 PM CDT SAT APR 30 2016

NOTE: "FAIR" INDICATES FEW OR NO CLOUDS BELOW 12,000 FEET WITH NO
SIGNIFICANT WEATHER AND/OR OBSTRUCTIONS TO VISIBILITY.

* THESE STATIONS ARE NOT UNDER NWS QUALITY CONTROL. THEY ALSO MAY NOT
  REPORT WEATHER SUCH AS PRECIPITATION OR FOG.

ILZ001-002-007-009-015-016-024-302200-
NORTHWEST ILLINOIS

CITY           SKY/WX    TMP DP  RH WIND       PRES   REMARKS
MOLINE         LGT RAIN  50  47  89 E18G28    29.80S FOG
STERLING*      RAIN      45  45 100 E25       29.83F FOG
SAVANNA*       RAIN      46  44  94 E24G36    29.85F
$$

ILZ003-004-008-010-011-017-018-302200-
NORTH CENTRAL ILLINOIS

CITY           SKY/WX    TMP DP  RH WIND       PRES   REMARKS
ROCKFORD       LGT RAIN  46  43  89 NE20G35   29.92F FOG
FREEPORT*      LGT RAIN  44  43  95 NE24G30   29.92F
ROCHELLE*      RAIN      44  43  95 NE26G33   29.87F
DE KALB*       LGT RAIN  45  43  95 E24G32    29.89F
$$

ILZ005-006-012>014-019>023-302200-
NORTHEAST ILLINOIS

CITY           SKY/WX    TMP DP  RH WIND       PRES   REMARKS
CHICAGO-OHARE  RAIN      45  43  93 NE16      29.93F FOG
CHICAGO-MIDWAY RAIN      47  43  86 NE17      29.92F FOG
AURORA         LGT RAIN  46  44  93 NE21G28   29.89F FOG
LANSING*       RAIN      47  46  94 E7        29.91F
JOLIET*        LGT RAIN  48  47  96 NE10      29.88F
WAUKEGAN       LGT RAIN  43  41  93 NE12      29.98S FOG
DUPAGE AIRPORT LGT RAIN  45  42  89 NE17      29.91S FOG
KANKAKEE*      DRIZZLE   49  48  96 E16       29.85F
WHEELING       RAIN      44  41  89 NE15G25   29.97S FOG
MORRIS*        RAIN      47  46  95 NE12G17   29.85F
ROMEOVILLE*    LGT RAIN  46  44  92 E14       29.89F
NORTHERLY ISL    N/A     44  42  93 NE13        N/A
NORTHERLY ISL    N/A     44  42  93 NE13        N/A
$$

LMZ740>746-302200-
SOUTHERN LAKE MICHIGAN

STATION/POSITION SKY/WX   TEMP    WIND        PRES    VSBY  WAVE
                          AIR SEA DIR/SP/G                  HT/PER
                          (F)     (DEG/KT/KT) (MB)    (MI)  (FT/S)
SOUTHERN BUOY              43 40   70/ 14/ 16 1015.5F         1/ 3
HARRISON CRIB              45      70/ 22/ 25   N/A
BURNHAM HARBOR             44      40/ 13/ 19   N/A
CALUMET HARBOR             46      70/ 10/ 16 1013.1F
BURNS HARBOR               48     100/ 12/ 21 1013.9F
MICHIGAN CITY              48      50/ 12/ 13   N/A
ST. JOSEPH                 48 47                N/A           2/ 3
$$

ILZ025>027-034>036-040-047-049-050-058-095>099-302200-
WEST-CENTRAL ILLINOIS

CITY           SKY/WX    TMP DP  RH WIND       PRES   REMARKS
QUINCY         MOSUNNY   69  61  75 VRB5      29.71S
GALESBURG*     DRIZZLE   53  52  97 E9G17     29.77S
MACOMB*        CLOUDY    58  57  99 E12       29.77S FOG
JACKSONVILLE*  CLOUDY    67  63  86 S12       29.74S
PITTSFIELD*    PTSUNNY   67  64  88 SE5       29.73F
$$

ILZ028>032-037-038-041>044-048-051>054-059>061-302200-
CENTRAL ILLINOIS

CITY           SKY/WX    TMP DP  RH WIND       PRES   REMARKS
PONTIAC        LGT RAIN  52  52  99 E20       29.83F
BLOOMINGTON    CLOUDY    56  56 100 SE13      29.79F FOG
DECATUR        CLOUDY    63  60  90 S10       29.78S
PEORIA         LGT RAIN  55  53  93 E12       29.78S FOG
LACON*         CLOUDY    50  49  95 E16G25    29.80S FOG
LINCOLN*       CLOUDY    62  61  97 S10       29.76S
SPRINGFIELD    LGT RAIN  64  64 100 S9        29.75S FOG
TAYLORVILLE    LGT RAIN  63  61  94 S9        29.77R
$$

ILZ033-039-045-046-055>057-062-063-302200-
EAST-CENTRAL ILLINOIS

CITY           SKY/WX    TMP DP  RH WIND       PRES   REMARKS
CHAMPAIGN      LGT RAIN  58  58 100 SE12      29.80F FOG
RANTOUL*       RAIN      58  57  96 SE12      29.81S
MATTOON        CLOUDY    62  59  90 S10       29.79S
PARIS*         CLOUDY    61  60  97 SE10      29.82R
$$

ILZ079-100>102-302200-
SOUTHWEST ILLINOIS

CITY           SKY/WX    TMP DP  RH WIND       PRES   REMARKS
BELLEVILLE     CLOUDY    72  66  80 S10       29.74S
CAHOKIA*       CLOUDY    74  62  66 S9        29.74S
SPARTA*        CLOUDY    71  62  73 S15       29.77F
$$

ILZ064>066-069>071-074>076-080>082-084>086-088>090-092>094-302200-
SOUTH-CENTRAL ILLINOIS

CITY           SKY/WX    TMP DP  RH WIND       PRES   REMARKS
CARBONDALE     CLOUDY    71  61  70 S13       29.77F
CAIRO*         CLOUDY    71  62  75 S8        29.78F
EFFINGHAM*     CLOUDY    66  65  96 SE9       29.79F
MARION         PTSUNNY   72  64  78 S14       29.79F
MT. VERNON     CLOUDY    70  61  73 S13       29.79S
CENTRALIA*     CLOUDY    70  65  83 S10       29.76F
SALEM*         CLOUDY    71  63  77 S7        29.77F
METROPOLIS*    CLOUDY    72  65  78 CALM      29.81F
$$

ILZ067-068-072-073-078-083-087-091-302200-
SOUTHEAST ILLINOIS

CITY           SKY/WX    TMP DP  RH WIND       PRES   REMARKS
LAWRENCEVILLE  CLOUDY    67  65  93 SE18      29.80F
FLORA*         CLOUDY    71  64  81 S10       29.79F
FAIRFIELD*     CLOUDY    70  64  81 S7G16     29.78F
HARRISBURG*    CLOUDY    71  63  74 S10G16    29.81S
ROBINSON*      CLOUDY    65  63  91 S8G20     29.82R
CARMI*         PTSUNNY   69  65  86 S13       29.81R
$$

ABBREVIATIONS USED IN REMARKS
   TC - TEMPERATURE IN CELSIUS
  WCI - WIND CHILL INDEX
   HX - HEAT INDEX
  VSB - VISIBILITY
$$




USA.gov is the U.S. government's official web portal to all federal, state and local government web resources and services.